Englewood, Florida, United States (34223)
Lat: 26.96N, Lon: 82.35W
Wx Zone: FLZ060
Local Info
Past Weather Observations for Sunday, April 20, 2014

NOTE: This archive is for the closest National Weather Service station to Englewood. Information may differ from the station used for current weather conditions.

Time Weather Temperature Dewpoint Humidity Pressure Winds Precip Visibility
23:53
Overcast
66°F / 19°C 61°F / 16°C 83% 30.09 in
(1019 mb)
NE 6.9 mph
(NE 11 kph)
- 10SM
22:53
Overcast
66°F / 19°C 61°F / 16°C 83% 30.09 in
(1019 mb)
NE 5.8 mph
(NE 9 kph)
- 10SM
21:53
Overcast
68°F / 20°C 61°F / 16°C 78% 30.09 in
(1019 mb)
NNE 8.1 mph
(NNE 13 kph)
- 10SM
20:53
Mostly Cloudy
70°F / 21°C 61°F / 16°C 73% 30.06 in
(1018 mb)
NE 6.9 mph
(NE 11 kph)
- 10SM
19:53
Overcast
72°F / 22°C 61°F / 16°C 69% 30.06 in
(1018 mb)
N 5.8 mph
(N 9 kph)
- 10SM
18:53
Overcast
73°F / 23°C 61°F / 16°C 65% 30.04 in
(1017 mb)
NE 4.6 mph
(NE 7 kph)
- 10SM
17:53
Partly Cloudy
77°F / 25°C 57°F / 14°C 51% 30.04 in
(1017 mb)
N 4.6 mph
(N 7 kph)
- 10SM
16:53
Mostly Cloudy
79°F / 26°C 59°F / 15°C 51% 30.04 in
(1017 mb)
NE 8.1 mph
(NE 13 kph)
- 10SM
15:53
Mostly Cloudy
79°F / 26°C 61°F / 16°C 54% 30.04 in
(1017 mb)
NW 8.1 mph
(NW 13 kph)
- 10SM
14:53
Mostly Cloudy
77°F / 25°C 61°F / 16°C 57% 30.04 in
(1017 mb)
NW 8.1 mph
(NW 13 kph)
- 10SM
13:53
Overcast
75°F / 24°C 61°F / 16°C 61% 30.06 in
(1018 mb)
Variable 6.9 mph
(Variable 11 kph)
- 10SM
12:53
Overcast
73°F / 23°C 61°F / 16°C 65% 30.06 in
(1018 mb)
Variable 6.9 mph
(Variable 11 kph)
- 10SM
11:53
Overcast
73°F / 23°C 61°F / 16°C 65% 30.06 in
(1018 mb)
NNE 6.9 mph
(NNE 11 kph)
- 10SM
10:53
Overcast
72°F / 22°C 59°F / 15°C 65% 30.09 in
(1019 mb)
NE 6.9 mph
(NE 11 kph)
- 10SM
09:53
Overcast
72°F / 22°C 59°F / 15°C 65% 30.09 in
(1019 mb)
N 8.1 mph
(N 13 kph)
- 10SM
08:53
Overcast
70°F / 21°C 61°F / 16°C 73% 30.06 in
(1018 mb)
NNE 8.1 mph
(NNE 13 kph)
- 10SM
07:53
Overcast
66°F / 19°C 61°F / 16°C 83% 30.06 in
(1018 mb)
N 8.1 mph
(N 13 kph)
- 10SM
06:53
Overcast
64°F / 18°C 61°F / 16°C 88% 30.06 in
(1018 mb)
N 6.9 mph
(N 11 kph)
- 10SM
05:53
Mostly Cloudy
63°F / 17°C 59°F / 15°C 88% 30.04 in
(1017 mb)
Calm - 10SM
04:53
Clear
63°F / 17°C 57°F / 14°C 83% 30.01 in
(1016 mb)
Calm - 10SM
03:53
Partly Cloudy
63°F / 17°C 57°F / 14°C 83% 30.01 in
(1016 mb)
Calm - 10SM
03:28
Partly Cloudy
63°F / 17°C 59°F / 15°C 88% 30.01 in
(1016 mb)
Calm - 10SM
02:53
Overcast
64°F / 18°C 57°F / 14°C 78% 30.01 in
(1016 mb)
NNW 4.6 mph
(NNW 7 kph)
- 10SM
02:51
Overcast
64°F / 18°C 57°F / 14°C 78% 30.01 in
(1016 mb)
NNW 4.6 mph
(NNW 7 kph)
- 10SM
01:53
Overcast
64°F / 18°C 57°F / 14°C 78% 30.01 in
(1016 mb)
NW 4.6 mph
(NW 7 kph)
- 10SM
01:35
Overcast
64°F / 18°C 57°F / 14°C 78% 30.01 in
(1016 mb)
NW 8.1 mph
(NW 13 kph)
- 10SM
01:22
Overcast
64°F / 18°C 57°F / 14°C 78% 30.04 in
(1017 mb)
NNW 9.2 mph
(NNW 15 kph)
- 10SM
00:53
Overcast
66°F / 19°C 57°F / 14°C 73% 30.04 in
(1017 mb)
N 10.4 mph
(N 17 kph)
- 10SM
Time Weather Temperature Dewpoint Humidity Pressure Winds Precip Visibility


Weather for websites

WeatherForYou.com, LLC is not responsible for any damages or problems caused by this service. Current weather conditions are obtained from the closest station including government and personal stations which may have varying degrees of accuracy. Weather forecasts are derived from the NOAA NDFD. Like all things, this site belongs to Jesus Christ... He just trusts me to maintain it. If you have any questions or comments email webmaster@weatherforyou.com

Copyright © 2014, WeatherForYou.com LLC. All rights reserved.